#timestamp,LO_Frequency,Hit,StdDev 
1539424815.6,286046999.5,N
1539424835.5,286046999.2,N
1539424855.3,286046999.0,N
1539424875.2,286046998.8,N
1539424895.9,286046999.1,N
1539424915.7,286047000.9,N
1539424935.6,286046998.2,N
1539424955.4,286046998.2,N
1539424975.2,286046998.1,N
1539424995.1,286047000.5,N
1539424996.0,286047000.5,N
1539425015.8,286047002.4,N
1539425035.7,286047000.0,N
1539425055.5,286047001.0,N
1539425075.3,286047000.2,N
1539425095.2,286046998.1,N
1539425115.0,286047001.0,N
1539425115.9,286047001.0,N
1539425135.8,286047000.3,N
1539425155.6,286046999.7,N
1539425175.4,286047002.4,N
1539425195.3,286047002.0,N
1539425215.1,286047002.4,N
1539425235.8,286047002.6,N
1539425255.7,286047000.2,N
1539425275.5,286047000.3,N
1539425295.4,286047001.0,N
1539425315.2,286047000.5,N
1539425335.0,286047000.3,N
1539425335.9,286047000.3,N
1539425355.8,286047000.6,N
1539425375.6,286046998.7,N
1539425395.5,286047001.2,N
1539425415.3,286047001.0,N
1539425435.1,286047000.9,N
1539425455.9,286047001.0,N
1539425475.7,286047002.8,N
1539425495.6,286047000.0,N
1539425515.4,286047004.4,Y
1539425535.2,286047002.8,P
1539425555.1,286047000.3,N
1539425556.0,286047000.3,N
1539425575.8,286047000.8,N
1539425595.7,286047000.4,N
1539425615.5,286047000.7,N
1539425635.7,286046998.1,N
1539425655.5,286047001.1,N
1539425675.4,286047001.1,N
1539425695.2,286047001.0,N
1539425715.0,286047002.8,N
1539425715.9,286047002.8,N
1539425735.8,286047001.0,N
1539425755.6,286046998.6,N
1539425775.4,286046998.4,N
1539425795.3,286046998.6,N
1539425815.1,286046998.9,N
1539425835.1,286046998.2,N
1539425855.9,286046998.2,N
1539425875.7,286046998.5,N
1539425895.6,286046998.5,N
1539425915.4,286047000.1,N
1539425935.2,286047001.0,N
1539425955.1,286046998.1,N
1539425956.0,286046998.1,N
1539425975.8,286047000.3,N
1539425995.6,286046999.7,N
1539426015.5,286046999.9,N
1539426035.3,286046999.9,N
1539426055.2,286047002.7,N
1539426075.9,286047001.0,N
1539426095.7,286046998.6,N
1539426115.6,286046998.9,N
1539426135.4,286046999.1,N
1539426155.3,286046999.3,N
1539426175.1,286046999.5,N
1539426195.8,286046998.7,N
1539426215.7,286046996.6,N
1539426235.5,286046999.5,N
1539426255.3,286046998.8,N
1539426275.2,286046998.9,N
1539426295.0,286046999.5,N
1539426295.9,286046999.5,N
1539426315.8,286046996.7,Y
1539426335.6,286046999.0,P
1539426355.4,286046999.4,P
1539426375.3,286046998.1,P
1539426395.1,286046999.0,N
1539426415.9,286046999.4,N
1539426435.7,286046998.6,Y
1539426455.5,286046999.8,P
1539426475.4,286047000.1,N
1539426495.2,286047001.2,N
1539426515.1,286046998.2,N
1539426516.0,286046998.2,N
1539426535.8,286046998.6,N
1539426555.6,286046998.2,N
1539426575.5,286047000.8,N
1539426595.3,286047000.0,N
1539426615.1,286047000.7,N
1539426635.9,286046998.6,N
1539426655.7,286047000.9,N
1539426675.6,286046998.5,N
1539426695.4,286047001.9,N
1539426715.2,286047002.2,N
1539426735.1,286047002.5,N
1539426736.0,286047002.5,N
1539426755.8,286047000.0,N
1539426775.7,286047002.2,N
1539426795.5,286047004.4,N
1539426815.3,286047007.8,Y
1539426835.2,286047012.8,P
1539426855.0,286047014.4,N
1539426855.9,286047014.4,N
1539426875.7,286047015.8,N
1539426895.6,286047019.5,Y
1539426915.4,286047007.7,P
1539426935.3,286047010.8,P
1539426955.1,286047010.4,P
1539426956.0,286047010.4,Y
1539426975.8,286046998.1,P
1539426995.7,286047000.6,N
1539427015.5,286047000.0,N
1539427035.4,286046998.2,N
1539427055.2,286047001.2,N
1539427075.0,286046998.4,N
1539427075.9,286046998.4,N
1539427095.8,286046996.7,N
1539427115.6,286046997.8,N
1539427135.4,286046993.9,N
1539427155.3,286046995.8,N
1539427175.1,286046996.2,N
1539427195.9,286046996.1,N
1539427215.7,286046993.8,N
1539427235.5,286046994.0,N
1539427255.4,286046993.0,N
1539427275.2,286046990.1,N
1539427295.1,286046991.6,N
1539427296.0,286046991.6,N
1539427315.8,286046990.0,N
1539427335.6,286046989.8,N
1539427355.5,286046988.1,N
1539427375.3,286046987.4,N
1539427395.2,286046987.4,N
1539427415.9,286046985.7,N
1539427435.7,286046987.9,N
1539427455.6,286046987.8,N
1539427475.4,286046987.9,N
1539427525.3,286046985.1,E
1539427535.2,286046991.0,N
1539427555.0,286046998.8,P
1539427555.9,286046998.8,N
1539427575.8,286046999.5,N
1539427595.6,286046996.6,N
1539427615.5,286046996.6,N
1539427635.3,286046997.1,N
1539427655.1,286046995.0,N
1539427675.9,286046998.0,N
1539427695.7,286046997.5,N
1539427715.6,286046995.4,N
1539427735.4,286046996.4,N
1539427755.2,286046994.8,N
1539427775.1,286046991.9,Y
1539427776.0,286046991.9,P
1539427795.8,286046995.5,N
1539427815.7,286046996.0,N
1539427835.5,286046996.0,N
1539427855.3,286046993.5,Y
1539427875.2,286046998.5,P
1539427895.0,286046998.5,N
1539427895.9,286046998.5,N
1539427915.7,286046996.7,N
1539427935.6,286046997.2,N
1539427955.4,286046997.4,N
1539427975.3,286046998.0,N
1539427995.1,286046997.5,N
1539428015.9,286046996.6,Y
1539428035.7,286047000.8,P
1539428055.5,286046999.3,N
1539428075.4,286046997.1,N
1539428095.2,286046997.2,N
1539428115.0,286046996.8,N
1539428115.9,286046996.8,N
1539428135.8,286046995.3,Y
1539428155.6,286046997.0,P
1539428175.5,286046996.6,P
1539428195.3,286046997.1,P
1539428215.1,286047001.2,N
1539428235.9,286046998.9,N
1539428255.7,286046999.5,N
1539428275.6,286046996.6,N
1539428295.4,286046999.5,N
1539428315.2,286046999.0,N
1539428335.1,286046996.6,N
1539428336.0,286046996.6,N
1539428355.8,286046996.5,N
1539428375.7,286046998.0,N
1539428395.5,286046998.0,N
